Regional Weather Roundup
Issued by NWS Sioux Falls, SD

Home | Current Version | Previous Version | Graphics & Text | Print | Product List | Glossary Off
Versions: 1 2 3 4 5 6 7 8 9 10 11 12 13 14 15 16 17 18 19 20 21 22 23 24 25 26 27 28 29 30 31 32 33 34 35 36 37 38 39 40 41 42 43 44 45 46 47 48 49 50

000
ASUS43 KFSD 250702
RWRFSD

WEATHER ROUNDUP FOR SE SOUTH DAKOTA/SW MINNESOTA/NW IOWA
NATIONAL WEATHER SERVICE SIOUX FALLS SD
200 AM CDT TUE APR 25 2017

NOTE: "FAIR" INDICATES FEW OR NO CLOUDS BELOW 12,000 FEET WITH NO
SIGNIFICANT WEATHER AND OR OBSTRUCTIONS TO VISIBILITY.


SDZ038>040-050-052>070-250800-
SOUTHEAST SOUTH DAKOTA

CITY           SKY/WX    TMP DP  RH WIND       PRES   REMARKS
BROOKINGS      CLOUDY    40  36  86 N13       29.57S
CHAMBERLAIN    CLOUDY    41  37  85 N10       29.66R
HURON          CLOUDY    38  35  89 N15       29.62S
MADISON        CLOUDY    39  39 100 N15       29.58R
MITCHELL       CLOUDY    42  37  82 N12       29.64R
SIOUX FALLS    CLEAR     42  38  85 N9        29.57R
WINNER         PTSUNNY   37  35  92 NW7       29.65R
YANKTON        CLEAR     43  36  75 NW15      29.60R
$$

MNZ071-072-080-081-089-090-097-098-250800-
SOUTHWEST MINNESOTA

CITY           SKY/WX    TMP DP  RH WIND       PRES   REMARKS
JACKSON        MOCLDY    48  45  87 N6        29.52S
LUVERNE        MOCLDY    43  37  81 NW7       29.55S
MARSHALL       CLOUDY    40  38  93 N20       29.56S
MONTEVIDEO     CLOUDY    41  37  87 N14       29.55F
PIPESTONE      MOCLDY    45  37  76 N7        29.54S
REDWOOD FALLS  CLOUDY    45  41  86 N12       29.52F
TRACY          CLOUDY    41  39  92 NW13G22   29.55F
WINDOM         CLOUDY    45  43  93 NW12      29.52F
WORTHINGTON    CLOUDY    45  42  89 N14       29.54R
$$

IAZ001>003-012>014-020>022-031-032-NEZ013-014-SDZ071-250800-
NORTHWEST IOWA

CITY           SKY/WX    TMP DP  RH WIND       PRES   REMARKS
CHEROKEE       PTCLDY    50  44  78 N5        29.53S
DENISON        PTCLDY    54  45  71 N8        29.54S
ESTHERVILLE    CLOUDY    57  42  57 S8        29.50S
LE MARS        PTCLDY    46  41  81 NW6       29.55F
ORANGE CITY    MOCLDY    46  41  81 NW8       29.54S
SHELDON        MOCLDY    46  41  81 NW7       29.52S
SIOUX CITY     CLEAR     47  43  86 NW9       29.54F
SPENCER        CLOUDY    52  45  77 NW12      29.52R
STORM LAKE     PTCLDY    52  43  71 W7G14     29.53S
$$

ABBREVIATIONS USED IN REMARKS
   TC - TEMPERATURE IN CELSIUS
  WCI - WIND CHILL INDEX
   HX - HEAT INDEX
  VSB - VISIBILITY





USA.gov is the U.S. government's official web portal to all federal, state and local government web resources and services.